Location: Dodge City Community College Allied Health Building
(37.7772°N, 100.0364°W)
Time: 08:18:46
(UTC+00:00)

Meteor 2-15 Rocket - Visible Passes

Search period start: 26 June 2022 00:00
Search period end: 06 July 2022 00:00
Orbit: 940 x 955 km, 82.5° (Epoch: 25 June)

Date Brightness Start Highest point End Pass type
(mag) Time Alt. Az. Time Alt. Az. Time Alt. Az.
28 Jun 7.4 02:29:46 10° WSW 02:33:19 16° WNW 02:36:54 10° NNW visible
29 Jun 7.8 10:12:19 10° NE 10:13:24 10° ENE 10:14:28 10° ENE visible
30 Jun 7.3 10:26:49 10° NNE 10:30:49 18° ENE 10:34:48 10° ESE visible
01 Jul 6.8 10:42:56 10° NNE 10:48:08 28° ENE 10:53:17 10° SE visible
04 Jul 7.3 09:50:34 10° NE 09:53:56 15° ENE 09:57:17 10° ESE visible
05 Jul 6.9 10:06:25 10° NNE 10:11:17 24° ENE 10:16:06 10° SE visible
